owner,sensor,date,latitude,longitude,vertical_datum,direction_of_sea_water_velocity,sea_water_speed,upward_sea_water_velocity,qcFlag 
TABS,ioos:station:wmo:42049:1,2016-01-01T00:00:00Z,28.3507,-96.0058,2.0,250.4452939,56.16960833,-99999.0,'11111222,11111222,99999999' 
TABS,ioos:station:wmo:42049:1,2016-01-01T00:30:00Z,28.3507,-96.0058,2.0,247.8402969,58.85728587,-99999.0,'11111222,11111222,99999999' 
TABS,ioos:station:wmo:42049:1,2016-01-01T01:00:00Z,28.3507,-96.0058,2.0,246.8904033,58.09134961,-99999.0,'11111222,11111222,99999999' 
TABS,ioos:station:wmo:42049:1,2016-01-01T01:30:00Z,28.3507,-96.0058,2.0,246.7624489,64.32834912,-99999.0,'11111222,11111222,99999999' 
TABS,ioos:station:wmo:42049:1,2016-01-01T02:00:00Z,28.3507,-96.0058,2.0,245.8006301,62.72151306,-99999.0,'11111222,11111222,99999999' 
TABS,ioos:station:wmo:42049:1,2016-01-01T02:30:00Z,28.3507,-96.0058,2.0,245.2361099,62.02340526,-99999.0,'11111222,11111222,99999999' 
TABS,ioos:station:wmo:42049:1,2016-01-01T03:00:00Z,28.3507,-96.0058,2.0,245.2760909,63.59978695,-99999.0,'11111222,11111222,99999999' 
TABS,ioos:station:wmo:42049:1,2016-01-01T03:30:00Z,28.3507,-96.0058,2.0,239.8810872,59.52677549,-99999.0,'11111222,11111222,99999999' 
TABS,ioos:station:wmo:42049:1,2016-01-01T04:00:00Z,28.3507,-96.0058,2.0,233.5429086,52.97737725,-99999.0,'11111222,11111222,99999999' 
TABS,ioos:station:wmo:42049:1,2016-01-01T04:30:00Z,28.3507,-96.0058,2.0,238.7709546,51.92346676,-99999.0,'11111222,11111222,99999999' 
TABS,ioos:station:wmo:42049:1,2016-01-01T05:00:00Z,28.3507,-96.0058,2.0,238.9535661,56.09553012,-99999.0,'11111222,11111222,99999999' 
TABS,ioos:station:wmo:42049:1,2016-01-01T05:30:00Z,28.3507,-96.0058,2.0,243.3684288,58.09308479,-99999.0,'11111222,11111222,99999999' 
TABS,ioos:station:wmo:42049:1,2016-01-01T06:00:00Z,28.3507,-96.0058,2.0,239.7822899,63.32436577,-99999.0,'11111222,11111222,99999999' 
TABS,ioos:station:wmo:42049:1,2016-01-01T06:30:00Z,28.3507,-96.0058,2.0,244.1453342,60.92859591,-99999.0,'11111222,11111222,99999999' 
TABS,ioos:station:wmo:42049:1,2016-01-01T07:00:00Z,28.3507,-96.0058,2.0,241.2402778,65.4082296,-99999.0,'11111222,11111222,99999999' 
TABS,ioos:station:wmo:42049:1,2016-01-01T07:30:00Z,28.3507,-96.0058,2.0,239.6506959,65.52995193,-99999.0,'11111222,11111222,99999999' 
TABS,ioos:station:wmo:42049:1,2016-01-01T08:00:00Z,28.3507,-96.0058,2.0,240.1243253,63.19834175,-99999.0,'11111222,11111222,99999999' 
TABS,ioos:station:wmo:42049:1,2016-01-01T08:30:00Z,28.3507,-96.0058,2.0,242.2299718,62.32851755,-99999.0,'11111222,11111222,99999999' 
TABS,ioos:station:wmo:42049:1,2016-01-01T09:00:00Z,28.3507,-96.0058,2.0,243.0189308,57.94699043,-99999.0,'11111222,11111222,99999999' 
TABS,ioos:station:wmo:42049:1,2016-01-01T09:30:00Z,28.3507,-96.0058,2.0,242.4460538,56.76879865,-99999.0,'11111222,11111222,99999999' 
TABS,ioos:station:wmo:42049:1,2016-01-01T10:00:00Z,28.3507,-96.0058,2.0,238.1476615,52.6598234,-99999.0,'11111222,11111222,99999999' 
TABS,ioos:station:wmo:42049:1,2016-01-01T10:30:00Z,28.3507,-96.0058,2.0,237.1334208,51.50369016,-99999.0,'11111222,11111222,99999999' 
TABS,ioos:station:wmo:42049:1,2016-01-01T11:00:00Z,28.3507,-96.0058,2.0,236.7683071,45.72817622,-99999.0,'11111222,11111222,99999999' 
TABS,ioos:station:wmo:42049:1,2016-01-01T11:30:00Z,28.3507,-96.0058,2.0,229.6394175,45.89312912,-99999.0,'11111222,11111222,99999999' 
TABS,ioos:station:wmo:42049:1,2016-01-01T12:00:00Z,28.3507,-96.0058,2.0,245.6618742,41.08077166,-99999.0,'11111222,11111222,99999999' 
TABS,ioos:station:wmo:42049:1,2016-01-01T12:30:00Z,28.3507,-96.0058,2.0,240.5773864,54.1891539,-99999.0,'11111222,11111222,99999999' 
TABS,ioos:station:wmo:42049:1,2016-01-01T13:00:00Z,28.3507,-96.0058,2.0,241.599291,55.7156181,-99999.0,'11111222,11111222,99999999' 
TABS,ioos:station:wmo:42049:1,2016-01-01T13:30:00Z,28.3507,-96.0058,2.0,244.6217794,57.6313708,-99999.0,'11111222,11111222,99999999' 
TABS,ioos:station:wmo:42049:1,2016-01-01T14:00:00Z,28.3507,-96.0058,2.0,245.629826,57.55838253,-99999.0,'11111222,11111222,99999999' 
TABS,ioos:station:wmo:42049:1,2016-01-01T14:30:00Z,28.3507,-96.0058,2.0,239.4903837,54.48338462,-99999.0,'11111222,11111222,99999999' 
TABS,ioos:station:wmo:42049:1,2016-01-01T15:00:00Z,28.3507,-96.0058,2.0,240.6324497,52.87467541,-99999.0,'11111222,11111222,99999999' 
TABS,ioos:station:wmo:42049:1,2016-01-01T15:30:00Z,28.3507,-96.0058,2.0,246.1296939,54.68763114,-99999.0,'11111222,11111222,99999999' 
TABS,ioos:station:wmo:42049:1,2016-01-01T16:00:00Z,28.3507,-96.0058,2.0,243.4257351,57.87391208,-99999.0,'11111222,11111222,99999999' 
TABS,ioos:station:wmo:42049:1,2016-01-01T16:30:00Z,28.3507,-96.0058,2.0,243.3569537,62.70834793,-99999.0,'11111222,11111222,99999999' 
TABS,ioos:station:wmo:42049:1,2016-01-01T17:00:00Z,28.3507,-96.0058,2.0,246.7926683,53.90129126,-99999.0,'11111222,11111222,99999999' 
TABS,ioos:station:wmo:42049:1,2016-01-01T17:30:00Z,28.3507,-96.0058,2.0,246.0124548,54.19004521,-99999.0,'11111222,11111222,99999999' 
TABS,ioos:station:wmo:42049:1,2016-01-01T18:00:00Z,28.3507,-96.0058,2.0,245.4410357,52.11444713,-99999.0,'11111222,11111222,99999999' 
TABS,ioos:station:wmo:42049:1,2016-01-01T18:30:00Z,28.3507,-96.0058,2.0,244.2377274,59.98170805,-99999.0,'11111222,11111222,99999999' 
TABS,ioos:station:wmo:42049:1,2016-01-01T19:00:00Z,28.3507,-96.0058,2.0,243.0593142,62.81696904,-99999.0,'11111222,11111222,99999999' 
TABS,ioos:station:wmo:42049:1,2016-01-01T19:30:00Z,28.3507,-96.0058,2.0,240.3601693,62.70462583,-99999.0,'11111222,11111222,99999999' 
TABS,ioos:station:wmo:42049:1,2016-01-01T20:00:00Z,28.3507,-96.0058,2.0,240.8619608,55.59548992,-99999.0,'11111222,11111222,99999999' 
TABS,ioos:station:wmo:42049:1,2016-01-01T20:30:00Z,28.3507,-96.0058,2.0,242.7531107,57.90484004,-99999.0,'11111222,11111222,99999999' 
TABS,ioos:station:wmo:42049:1,2016-01-01T21:00:00Z,28.3507,-96.0058,2.0,246.5930651,45.94048432,-99999.0,'11111222,11111222,99999999' 
TABS,ioos:station:wmo:42049:1,2016-01-01T21:30:00Z,28.3507,-96.0058,2.0,242.2976813,50.93871219,-99999.0,'11111222,11111222,99999999' 
TABS,ioos:station:wmo:42049:1,2016-01-01T22:00:00Z,28.3507,-96.0058,2.0,247.5513585,52.14100306,-99999.0,'11111222,11111222,99999999' 
TABS,ioos:station:wmo:42049:1,2016-01-01T22:30:00Z,28.3507,-96.0058,2.0,245.706134,56.41560511,-99999.0,'11111222,11111222,99999999' 
TABS,ioos:station:wmo:42049:1,2016-01-01T23:00:00Z,28.3507,-96.0058,2.0,250.0069357,56.18597779,-99999.0,'11111222,11111222,99999999' 
TABS,ioos:station:wmo:42049:1,2016-01-01T23:30:00Z,28.3507,-96.0058,2.0,248.6464274,54.59795692,-99999.0,'11111222,11111222,99999999' 
TABS,ioos:station:wmo:42049:1,2016-01-02T00:00:00Z,28.3507,-96.0058,2.0,248.6675602,48.73923368,-99999.0,'11111222,11111222,99999999' 
TABS,ioos:station:wmo:42049:1,2016-01-02T00:30:00Z,28.3507,-96.0058,2.0,246.1854349,46.68475768,-99999.0,'11111222,11111222,99999999' 
TABS,ioos:station:wmo:42049:1,2016-01-02T01:00:00Z,28.3507,-96.0058,2.0,248.7213123,48.00238848,-99999.0,'11111222,11111222,99999999' 
TABS,ioos:station:wmo:42049:1,2016-01-02T01:30:00Z,28.3507,-96.0058,2.0,245.6416464,50.747195,-99999.0,'11111222,11111222,99999999' 
TABS,ioos:station:wmo:42049:1,2016-01-02T02:00:00Z,28.3507,-96.0058,2.0,246.4043125,48.16698039,-99999.0,'11111222,11111222,99999999' 
TABS,ioos:station:wmo:42049:1,2016-01-02T02:30:00Z,28.3507,-96.0058,2.0,246.7414189,50.47159399,-99999.0,'11111222,11111222,99999999' 
TABS,ioos:station:wmo:42049:1,2016-01-02T03:00:00Z,28.3507,-96.0058,2.0,242.9093657,51.71348083,-99999.0,'11111222,11111222,99999999' 
TABS,ioos:station:wmo:42049:1,2016-01-02T03:30:00Z,28.3507,-96.0058,2.0,249.0739617,54.06594214,-99999.0,'11111222,11111222,99999999' 
TABS,ioos:station:wmo:42049:1,2016-01-02T04:00:00Z,28.3507,-96.0058,2.0,249.3533526,54.25449106,-99999.0,'11111222,11111222,99999999' 
TABS,ioos:station:wmo:42049:1,2016-01-02T04:30:00Z,28.3507,-96.0058,2.0,247.8300688,42.7720902,-99999.0,'11111222,11111222,99999999' 
TABS,ioos:station:wmo:42049:1,2016-01-02T05:00:00Z,28.3507,-96.0058,2.0,243.0737089,51.12200016,-99999.0,'11111222,11111222,99999999' 
TABS,ioos:station:wmo:42049:1,2016-01-02T05:30:00Z,28.3507,-96.0058,2.0,239.1866236,58.01988711,-99999.0,'11111222,11111222,99999999' 
TABS,ioos:station:wmo:42049:1,2016-01-02T06:00:00Z,28.3507,-96.0058,2.0,239.6042924,56.70365244,-99999.0,'11111222,11111222,99999999' 
TABS,ioos:station:wmo:42049:1,2016-01-02T06:30:00Z,28.3507,-96.0058,2.0,239.405331,60.90898866,-99999.0,'11111222,11111222,99999999' 
TABS,ioos:station:wmo:42049:1,2016-01-02T07:00:00Z,28.3507,-96.0058,2.0,242.4244559,54.28675069,-99999.0,'11111222,11111222,99999999' 
TABS,ioos:station:wmo:42049:1,2016-01-02T07:30:00Z,28.3507,-96.0058,2.0,245.3431208,55.32417916,-99999.0,'11111222,11111222,99999999' 
TABS,ioos:station:wmo:42049:1,2016-01-02T08:00:00Z,28.3507,-96.0058,2.0,240.2156806,63.63603539,-99999.0,'11111222,11111222,99999999' 
TABS,ioos:station:wmo:42049:1,2016-01-02T08:30:00Z,28.3507,-96.0058,2.0,249.4852987,57.86984016,-99999.0,'11111222,11111222,99999999' 
TABS,ioos:station:wmo:42049:1,2016-01-02T09:00:00Z,28.3507,-96.0058,2.0,251.9003862,64.76455821,-99999.0,'11111222,11111222,99999999' 
TABS,ioos:station:wmo:42049:1,2016-01-02T09:30:00Z,28.3507,-96.0058,2.0,250.302035,58.12096438,-99999.0,'11111222,11111222,99999999' 
TABS,ioos:station:wmo:42049:1,2016-01-02T10:00:00Z,28.3507,-96.0058,2.0,248.9059695,57.87822475,-99999.0,'11111222,11111222,99999999' 
TABS,ioos:station:wmo:42049:1,2016-01-02T10:30:00Z,28.3507,-96.0058,2.0,246.0422306,57.20866455,-99999.0,'11111222,11111222,99999999' 
TABS,ioos:station:wmo:42049:1,2016-01-02T11:00:00Z,28.3507,-96.0058,2.0,244.2785931,53.43440558,-99999.0,'11111222,11111222,99999999' 
TABS,ioos:station:wmo:42049:1,2016-01-02T11:30:00Z,28.3507,-96.0058,2.0,240.5412432,52.09523971,-99999.0,'11111222,11111222,99999999' 
TABS,ioos:station:wmo:42049:1,2016-01-02T12:00:00Z,28.3507,-96.0058,2.0,244.7995048,61.58089639,-99999.0,'11111222,11111222,99999999' 
TABS,ioos:station:wmo:42049:1,2016-01-02T12:30:00Z,28.3507,-96.0058,2.0,243.3984717,63.84869772,-99999.0,'11111222,11111222,99999999' 
TABS,ioos:station:wmo:42049:1,2016-01-02T13:00:00Z,28.3507,-96.0058,2.0,239.8382555,70.29730294,-99999.0,'11111222,11111222,99999999' 
TABS,ioos:station:wmo:42049:1,2016-01-02T13:30:00Z,28.3507,-96.0058,2.0,240.1553107,66.45294952,-99999.0,'11111222,11111222,99999999' 
TABS,ioos:station:wmo:42049:1,2016-01-02T14:00:00Z,28.3507,-96.0058,2.0,247.8985749,59.2970463,-99999.0,'11111222,11111222,99999999' 
TABS,ioos:station:wmo:42049:1,2016-01-02T14:30:00Z,28.3507,-96.0058,2.0,245.1317962,70.36415067,-99999.0,'11111222,11111222,99999999' 
TABS,ioos:station:wmo:42049:1,2016-01-02T15:00:00Z,28.3507,-96.0058,2.0,243.6411709,70.70045686,-99999.0,'11111222,11111222,99999999' 
TABS,ioos:station:wmo:42049:1,2016-01-02T15:30:00Z,28.3507,-96.0058,2.0,243.4869729,68.4818465,-99999.0,'11111222,11111222,99999999' 
TABS,ioos:station:wmo:42049:1,2016-01-02T16:00:00Z,28.3507,-96.0058,2.0,242.0732471,68.51904626,-99999.0,'11111222,11111222,99999999' 
TABS,ioos:station:wmo:42049:1,2016-01-02T16:30:00Z,28.3507,-96.0058,2.0,245.0915956,68.04964364,-99999.0,'11111222,11111222,99999999' 
TABS,ioos:station:wmo:42049:1,2016-01-02T17:00:00Z,28.3507,-96.0058,2.0,245.1699417,66.75041049,-99999.0,'11111222,11111222,99999999' 
TABS,ioos:station:wmo:42049:1,2016-01-02T17:30:00Z,28.3507,-96.0058,2.0,245.0625543,63.75367048,-99999.0,'11111222,11111222,99999999' 
TABS,ioos:station:wmo:42049:1,2016-01-02T18:00:00Z,28.3507,-96.0058,2.0,246.6463042,69.52569669,-99999.0,'11111222,11111222,99999999' 
TABS,ioos:station:wmo:42049:1,2016-01-02T18:30:00Z,28.3507,-96.0058,2.0,247.2539803,70.4270928,-99999.0,'11111222,11111222,99999999' 
TABS,ioos:station:wmo:42049:1,2016-01-02T19:00:00Z,28.3507,-96.0058,2.0,245.3602143,72.534285,-99999.0,'11111222,11111222,99999999' 
TABS,ioos:station:wmo:42049:1,2016-01-02T19:30:00Z,28.3507,-96.0058,2.0,247.638123,87.00242295,-99999.0,'11111222,11111222,99999999' 
TABS,ioos:station:wmo:42049:1,2016-01-02T20:00:00Z,28.3507,-96.0058,2.0,249.7398767,77.85681216,-99999.0,'11111222,11111222,99999999' 
TABS,ioos:station:wmo:42049:1,2016-01-02T20:30:00Z,28.3507,-96.0058,2.0,249.7489258,77.74568605,-99999.0,'11111222,11111222,99999999' 
TABS,ioos:station:wmo:42049:1,2016-01-02T21:00:00Z,28.3507,-96.0058,2.0,246.9592561,70.85190823,-99999.0,'11111222,11111222,99999999' 
TABS,ioos:station:wmo:42049:1,2016-01-02T21:30:00Z,28.3507,-96.0058,2.0,250.9186756,61.42482316,-99999.0,'11111222,11111222,99999999' 
TABS,ioos:station:wmo:42049:1,2016-01-02T22:00:00Z,28.3507,-96.0058,2.0,250.3231664,61.29933115,-99999.0,'11111222,11111222,99999999' 
TABS,ioos:station:wmo:42049:1,2016-01-02T22:30:00Z,28.3507,-96.0058,2.0,248.4884739,74.77861526,-99999.0,'11111222,11111222,99999999' 
TABS,ioos:station:wmo:42049:1,2016-01-02T23:00:00Z,28.3507,-96.0058,2.0,250.0950001,74.22409986,-99999.0,'11111222,11111222,99999999' 
TABS,ioos:station:wmo:42049:1,2016-01-02T23:30:00Z,28.3507,-96.0058,2.0,253.0310347,80.07612004,-99999.0,'11111222,11111222,99999999' 
TABS,ioos:station:wmo:42049:1,2016-01-03T00:00:00Z,28.3507,-96.0058,2.0,252.9610594,66.95897849,-99999.0,'11111222,11111222,99999999' 
TABS,ioos:station:wmo:42049:1,2016-01-03T00:30:00Z,28.3507,-96.0058,2.0,257.3845936,61.99662571,-99999.0,'11111222,11111222,99999999' 
TABS,ioos:station:wmo:42049:1,2016-01-03T01:00:00Z,28.3507,-96.0058,2.0,256.8507845,54.02643982,-99999.0,'11111222,11111222,99999999' 
TABS,ioos:station:wmo:42049:1,2016-01-03T01:30:00Z,28.3507,-96.0058,2.0,249.5426745,46.69480592,-99999.0,'11111222,11111222,99999999' 
TABS,ioos:station:wmo:42049:1,2016-01-03T02:00:00Z,28.3507,-96.0058,2.0,243.8001075,42.06129456,-99999.0,'11111222,11111222,99999999' 
TABS,ioos:station:wmo:42049:1,2016-01-03T02:30:00Z,28.3507,-96.0058,2.0,237.7486533,39.31568262,-99999.0,'11111222,11111222,99999999' 
TABS,ioos:station:wmo:42049:1,2016-01-03T03:00:00Z,28.3507,-96.0058,2.0,236.8967054,39.78796049,-99999.0,'11111222,11111222,99999999' 
TABS,ioos:station:wmo:42049:1,2016-01-03T03:30:00Z,28.3507,-96.0058,2.0,237.7494746,56.07015962,-99999.0,'11111222,11111222,99999999' 
TABS,ioos:station:wmo:42049:1,2016-01-03T04:00:00Z,28.3507,-96.0058,2.0,245.5761874,71.68474384,-99999.0,'11111222,11111222,99999999' 
TABS,ioos:station:wmo:42049:1,2016-01-03T04:30:00Z,28.3507,-96.0058,2.0,248.6631615,63.84601632,-99999.0,'11111222,11111222,99999999' 
TABS,ioos:station:wmo:42049:1,2016-01-03T05:00:00Z,28.3507,-96.0058,2.0,247.3501855,59.59616179,-99999.0,'11111222,11111222,99999999' 
TABS,ioos:station:wmo:42049:1,2016-01-03T05:30:00Z,28.3507,-96.0058,2.0,247.4391795,66.02234319,-99999.0,'11111222,11111222,99999999' 
TABS,ioos:station:wmo:42049:1,2016-01-03T06:00:00Z,28.3507,-96.0058,2.0,247.4166238,60.98616646,-99999.0,'11111222,11111222,99999999' 
TABS,ioos:station:wmo:42049:1,2016-01-03T06:30:00Z,28.3507,-96.0058,2.0,245.6569711,55.24112417,-99999.0,'11111222,11111222,99999999' 
TABS,ioos:station:wmo:42049:1,2016-01-03T07:00:00Z,28.3507,-96.0058,2.0,244.0870159,55.37757759,-99999.0,'11111222,11111222,99999999' 
TABS,ioos:station:wmo:42049:1,2016-01-03T07:30:00Z,28.3507,-96.0058,2.0,246.32779,44.0351144,-99999.0,'11111222,11111222,99999999' 
TABS,ioos:station:wmo:42049:1,2016-01-03T08:00:00Z,28.3507,-96.0058,2.0,250.386762,56.45542401,-99999.0,'11111222,11111222,99999999' 
TABS,ioos:station:wmo:42049:1,2016-01-03T08:30:00Z,28.3507,-96.0058,2.0,251.1666241,44.60816517,-99999.0,'11111222,11111222,99999999' 
TABS,ioos:station:wmo:42049:1,2016-01-03T09:00:00Z,28.3507,-96.0058,2.0,245.0263238,47.655581,-99999.0,'11111222,11111222,99999999' 
TABS,ioos:station:wmo:42049:1,2016-01-03T09:30:00Z,28.3507,-96.0058,2.0,239.4804089,41.1163082,-99999.0,'11111222,11111222,99999999' 
TABS,ioos:station:wmo:42049:1,2016-01-03T10:00:00Z,28.3507,-96.0058,2.0,237.227456,41.89910858,-99999.0,'11111222,11111222,99999999' 
TABS,ioos:station:wmo:42049:1,2016-01-03T10:30:00Z,28.3507,-96.0058,2.0,231.5900165,36.84330333,-99999.0,'11111222,11111222,99999999' 
TABS,ioos:station:wmo:42049:1,2016-01-03T11:00:00Z,28.3507,-96.0058,2.0,240.4712271,41.69581394,-99999.0,'11111222,11111222,99999999' 
TABS,ioos:station:wmo:42049:1,2016-01-03T11:30:00Z,28.3507,-96.0058,2.0,234.598425,41.98179129,-99999.0,'11111222,11111222,99999999' 
TABS,ioos:station:wmo:42049:1,2016-01-03T12:00:00Z,28.3507,-96.0058,2.0,237.1046103,47.17347242,-99999.0,'11111222,11111222,99999999' 
TABS,ioos:station:wmo:42049:1,2016-01-03T12:30:00Z,28.3507,-96.0058,2.0,233.2370713,50.19208802,-99999.0,'11111222,11111222,99999999' 
TABS,ioos:station:wmo:42049:1,2016-01-03T13:00:00Z,28.3507,-96.0058,2.0,236.7835269,51.97163938,-99999.0,'11111222,11111222,99999999' 
TABS,ioos:station:wmo:42049:1,2016-01-03T13:30:00Z,28.3507,-96.0058,2.0,233.9183408,52.31495484,-99999.0,'11111222,11111222,99999999' 
TABS,ioos:station:wmo:42049:1,2016-01-03T14:00:00Z,28.3507,-96.0058,2.0,241.2832712,50.5126014,-99999.0,'11111222,11111222,99999999' 
TABS,ioos:station:wmo:42049:1,2016-01-03T14:30:00Z,28.3507,-96.0058,2.0,246.3576607,52.09213472,-99999.0,'11111222,11111222,99999999' 
TABS,ioos:station:wmo:42049:1,2016-01-03T15:00:00Z,28.3507,-96.0058,2.0,244.5260796,53.058104,-99999.0,'11111222,11111222,99999999' 
TABS,ioos:station:wmo:42049:1,2016-01-03T15:30:00Z,28.3507,-96.0058,2.0,243.5347155,53.74173983,-99999.0,'11111222,11111222,99999999' 
TABS,ioos:station:wmo:42049:1,2016-01-03T16:00:00Z,28.3507,-96.0058,2.0,246.0024304,55.29982369,-99999.0,'11111222,11111222,99999999' 
TABS,ioos:station:wmo:42049:1,2016-01-03T16:30:00Z,28.3507,-96.0058,2.0,245.1873965,57.16723012,-99999.0,'11111222,11111222,99999999' 
TABS,ioos:station:wmo:42049:1,2016-01-03T17:00:00Z,28.3507,-96.0058,2.0,243.8243503,60.48256608,-99999.0,'11111222,11111222,99999999' 
TABS,ioos:station:wmo:42049:1,2016-01-03T17:30:00Z,28.3507,-96.0058,2.0,245.7036232,63.14240176,-99999.0,'11111222,11111222,99999999' 
TABS,ioos:station:wmo:42049:1,2016-01-03T18:00:00Z,28.3507,-96.0058,2.0,249.6982496,67.6738598,-99999.0,'11111222,11111222,99999999' 
TABS,ioos:station:wmo:42049:1,2016-01-03T18:30:00Z,28.3507,-96.0058,2.0,247.3282885,67.63618115,-99999.0,'11111222,11111222,99999999' 
TABS,ioos:station:wmo:42049:1,2016-01-03T19:00:00Z,28.3507,-96.0058,2.0,248.3144791,69.5523321,-99999.0,'11111222,11111222,99999999' 
TABS,ioos:station:wmo:42049:1,2016-01-03T19:30:00Z,28.3507,-96.0058,2.0,248.5286802,76.30534057,-99999.0,'11111222,11111222,99999999' 
TABS,ioos:station:wmo:42049:1,2016-01-03T20:00:00Z,28.3507,-96.0058,2.0,249.0228158,75.2255442,-99999.0,'11111222,11111222,99999999' 
TABS,ioos:station:wmo:42049:1,2016-01-03T20:30:00Z,28.3507,-96.0058,2.0,248.9143615,76.66288085,-99999.0,'11111222,11111222,99999999' 
TABS,ioos:station:wmo:42049:1,2016-01-03T21:00:00Z,28.3507,-96.0058,2.0,248.8110781,73.26285894,-99999.0,'11111222,11111222,99999999' 
TABS,ioos:station:wmo:42049:1,2016-01-03T21:30:00Z,28.3507,-96.0058,2.0,247.3946014,74.27615634,-99999.0,'11111222,11111222,99999999' 
TABS,ioos:station:wmo:42049:1,2016-01-03T22:00:00Z,28.3507,-96.0058,2.0,247.3229901,74.52080582,-99999.0,'11111222,11111222,99999999' 
TABS,ioos:station:wmo:42049:1,2016-01-03T22:30:00Z,28.3507,-96.0058,2.0,247.4967238,73.10630616,-99999.0,'11111222,11111222,99999999' 
TABS,ioos:station:wmo:42049:1,2016-01-03T23:00:00Z,28.3507,-96.0058,2.0,248.9188284,74.12058553,-99999.0,'11111222,11111222,99999999' 
TABS,ioos:station:wmo:42049:1,2016-01-03T23:30:00Z,28.3507,-96.0058,2.0,247.6171965,67.7544279,-99999.0,'11111222,11111222,99999999' 
TABS,ioos:station:wmo:42049:1,2016-01-04T00:00:00Z,28.3507,-96.0058,2.0,248.2771662,67.38518828,-99999.0,'11111222,11111222,99999999' 
TABS,ioos:station:wmo:42049:1,2016-01-04T00:30:00Z,28.3507,-96.0058,2.0,249.9587235,68.60410046,-99999.0,'11111222,11111222,99999999' 
TABS,ioos:station:wmo:42049:1,2016-01-04T01:00:00Z,28.3507,-96.0058,2.0,248.546888,64.6918828,-99999.0,'11111222,11111222,99999999' 
TABS,ioos:station:wmo:42049:1,2016-01-04T01:30:00Z,28.3507,-96.0058,2.0,245.9340848,62.65609787,-99999.0,'11111222,11111222,99999999' 
TABS,ioos:station:wmo:42049:1,2016-01-04T02:00:00Z,28.3507,-96.0058,2.0,244.623144,58.42761077,-99999.0,'11111222,11111222,99999999' 
TABS,ioos:station:wmo:42049:1,2016-01-04T02:30:00Z,28.3507,-96.0058,2.0,241.7822892,56.3007682,-99999.0,'11111222,11111222,99999999' 
TABS,ioos:station:wmo:42049:1,2016-01-04T03:00:00Z,28.3507,-96.0058,2.0,241.3566025,51.92433919,-99999.0,'11111222,11111222,99999999' 
TABS,ioos:station:wmo:42049:1,2016-01-04T03:30:00Z,28.3507,-96.0058,2.0,240.7440761,50.39839085,-99999.0,'11111222,11111222,99999999' 
TABS,ioos:station:wmo:42049:1,2016-01-04T04:00:00Z,28.3507,-96.0058,2.0,242.8691908,50.30503454,-99999.0,'11111222,11111222,99999999' 
TABS,ioos:station:wmo:42049:1,2016-01-04T04:30:00Z,28.3507,-96.0058,2.0,241.8857145,47.98118902,-99999.0,'11111222,11111222,99999999' 
TABS,ioos:station:wmo:42049:1,2016-01-04T05:00:00Z,28.3507,-96.0058,2.0,240.7075459,49.441789,-99999.0,'11111222,11111222,99999999' 
TABS,ioos:station:wmo:42049:1,2016-01-04T05:30:00Z,28.3507,-96.0058,2.0,239.531741,49.14647495,-99999.0,'11111222,11111222,99999999' 
TABS,ioos:station:wmo:42049:1,2016-01-04T06:00:00Z,28.3507,-96.0058,2.0,236.8838071,50.92126177,-99999.0,'11111222,11111222,99999999' 
TABS,ioos:station:wmo:42049:1,2016-01-04T06:30:00Z,28.3507,-96.0058,2.0,236.7561716,50.52917573,-99999.0,'11111222,11111222,99999999' 
TABS,ioos:station:wmo:42049:1,2016-01-04T07:00:00Z,28.3507,-96.0058,2.0,235.7686889,49.65065357,-99999.0,'11111222,11111222,99999999' 
TABS,ioos:station:wmo:42049:1,2016-01-04T07:30:00Z,28.3507,-96.0058,2.0,237.2517973,51.77994399,-99999.0,'11111222,11111222,99999999' 
TABS,ioos:station:wmo:42049:1,2016-01-04T08:00:00Z,28.3507,-96.0058,2.0,239.2324147,54.50085596,-99999.0,'11111222,11111222,99999999' 
TABS,ioos:station:wmo:42049:1,2016-01-04T08:30:00Z,28.3507,-96.0058,2.0,235.8414146,58.38137117,-99999.0,'11111222,11111222,99999999' 
TABS,ioos:station:wmo:42049:1,2016-01-04T09:00:00Z,28.3507,-96.0058,2.0,231.0559478,61.45825331,-99999.0,'11111222,11111222,99999999' 
TABS,ioos:station:wmo:42049:1,2016-01-04T09:30:00Z,28.3507,-96.0058,2.0,234.3341683,66.70073613,-99999.0,'11111222,11111222,99999999' 
TABS,ioos:station:wmo:42049:1,2016-01-04T10:00:00Z,28.3507,-96.0058,2.0,238.9969385,63.05832935,-99999.0,'11111222,11111222,99999999' 
TABS,ioos:station:wmo:42049:1,2016-01-04T10:30:00Z,28.3507,-96.0058,2.0,242.7103859,63.68830348,-99999.0,'11111222,11111222,99999999' 
TABS,ioos:station:wmo:42049:1,2016-01-04T11:00:00Z,28.3507,-96.0058,2.0,247.0745908,63.2562819,-99999.0,'11111222,11111222,99999999' 
TABS,ioos:station:wmo:42049:1,2016-01-04T11:30:00Z,28.3507,-96.0058,2.0,245.461724,61.57065048,-99999.0,'11111222,11111222,99999999' 
TABS,ioos:station:wmo:42049:1,2016-01-04T12:00:00Z,28.3507,-96.0058,2.0,247.1359451,62.00133063,-99999.0,'11111222,11111222,99999999' 
TABS,ioos:station:wmo:42049:1,2016-01-04T12:30:00Z,28.3507,-96.0058,2.0,249.2200196,60.29186512,-99999.0,'11111222,11111222,99999999' 
TABS,ioos:station:wmo:42049:1,2016-01-04T13:00:00Z,28.3507,-96.0058,2.0,250.0749976,63.6180674,-99999.0,'11111222,11111222,99999999' 
TABS,ioos:station:wmo:42049:1,2016-01-04T13:30:00Z,28.3507,-96.0058,2.0,252.702772,63.36557109,-99999.0,'11111222,11111222,99999999' 
TABS,ioos:station:wmo:42049:1,2016-01-04T14:00:00Z,28.3507,-96.0058,2.0,253.7638262,64.77320588,-99999.0,'11111222,11111222,99999999' 
TABS,ioos:station:wmo:42049:1,2016-01-04T14:30:00Z,28.3507,-96.0058,2.0,260.1179669,63.57314685,-99999.0,'11111222,11111222,99999999' 
TABS,ioos:station:wmo:42049:1,2016-01-04T15:00:00Z,28.3507,-96.0058,2.0,260.2617055,62.55125019,-99999.0,'11111222,11111222,99999999' 
TABS,ioos:station:wmo:42049:1,2016-01-04T15:30:00Z,28.3507,-96.0058,2.0,260.4920944,62.53903821,-99999.0,'11111222,11111222,99999999' 
TABS,ioos:station:wmo:42049:1,2016-01-04T16:00:00Z,28.3507,-96.0058,2.0,261.1801412,63.59188706,-99999.0,'11111222,11111222,99999999' 